Location: Aubervilles
(48.9167°N, 2.3833°E)
Time: 10:47:45
(UTC+00:00)

Okean O Rocket - Pass Details

Date: 03 February 2023
Orbit: 620 x 643 km, 98.1° (Epoch: 28 March)

Event Time Altitude Azimuth Distance (km) Brightness Sun altitude
Rises 17:39:39 0° 123° (ESE) 2,918 4.6 -8.4°
Reaches altitude 10° 17:42:18 10° 107° (ESE) 2,020 3.7 -8.8°
Maximum altitude 17:45:28 20° 61° (ENE) 1,486 2.9 -9.3°
Drops below altitude 10° 17:48:40 10° 14° (NNE) 2,040 3.9 -9.8°
Sets 17:51:21 0° 358° (N) 2,959 4.9 -10.2°
